Air Resources Laboratory banner image
Air Resources Laboratory web site National Oceanic and Atmospheric Administration (NOAA)

sc roundup


Office: CAE

ASUS42 KCAE 110510
RWRCAE
REGIONAL WEATHER ROUNDUP
NATIONAL WEATHER SERVICE COLUMBIA SC
100 AM EDT THU AUG 11 2022

NOTE: "FAIR" INDICATES FEW OR NO CLOUDS BELOW 12,000 FEET WITH NO
SIGNIFICANT WEATHER AND/OR OBSTRUCTIONS TO VISIBILITY.

NOT ALL STATIONS ARE QUALITY CONTROLLED BY THE NATIONAL
WEATHER SERVICE. USE DATA WITH CAUTION...ESPECIALLY
DEWPOINT OBSERVATIONS.

SCZ001>059-115-116-135>137-GAZ040-063>065-077-110600-
...UPSTATE SOUTH CAROLINA...

CITY           SKY/WX    TMP DP  RH WIND       PRES   REMARKS
ANDERSON       MOCLDY    77  69  76 W6        30.13F
LIBERTY        MOCLDY    73  72  98 N5        30.14F
SPARTANBURG    MOCLDY    73  72  94 CALM      30.13S
CLEMSON        MOCLDY    75  72  90 W6        30.14F
GREENVILLE     MOCLDY    77  72  84 NW6       30.15F
GREENWOOD      MOCLDY    74  68  81 SW6       30.15R
GREER          MOCLDY    75  72  90 NW3       30.15F
ROCK HILL      MOCLDY    76  71  85 SW5       30.13F
LAURENS        MOCLDY    73  72  94 CALM      30.13S


...CENTRAL SOUTH CAROLINA...

CITY           SKY/WX    TMP DP  RH WIND       PRES   REMARKS
COLUMBIA APT   MOCLDY    73  71  93 W5        30.11S
COLUMBIA OWENS MOCLDY    74  71  91 CALM      30.11F
ORANGEBURG     MOCLDY    72  72 100 SW6       30.13F
SUMTER SHAW    LGT RAIN  76  73  92 SW10      30.13S
NEWBERRY       HAZE      73  66  78 S5        30.16S VSB<1/4
AIKEN          FAIR      71  69  95 S5        30.16S
BARNWELL       MOCLDY    72  72 100 CALM      30.15S
MANNING        FAIR      72  68  88 S5        30.13F
CAMDEN         FAIR      75  66  73 CALM      30.12F
LANCASTER      MOCLDY    77  72  83 CALM      30.13F
WINNSBORO      PTCLDY    73  68  83 CALM      30.12F


...EASTERN AND COASTAL SOUTH CAROLINA...

CITY           SKY/WX    TMP DP  RH WIND       PRES   REMARKS
MYRTLE BEACH   PTCLDY    81  76  84 W13G21    30.13S
N MYRTLE BCH   PTCLDY    81  75  82 W10       30.12R
CONWAY         FAIR      73  70  88 W5        30.12F
MARION         FAIR      79  68  69 W15G28    30.13S
HARTSVILLE     FAIR      77  63  61 CALM      30.13F
FLORENCE       LGT RAIN  72  69  90 N13       30.11F
DARLINGTON     MOCLDY    79  65  62 SW12G20   30.14R
CHARLESTON APT MOCLDY    79  72  79 W8        30.15R
MOUNT PLEASANT MOCLDY    82  79  89 W8        30.14R
WALTERBORO     MOCLDY    73  68  83 SW5       30.16S
BEAUFORT       CLOUDY    76  70  82 CALM      30.15F
HILTON HEAD    CLOUDY    77  66  69 CALM      30.16F


...EASTERN GEORGIA...

CITY           SKY/WX    TMP DP  RH WIND       PRES   REMARKS
AUGUSTA BUSH F MOCLDY    70  69  97 SE3       30.14S
AUGUSTA DANIEL MOCLDY    72  68  87 CALM      30.15S
THOMSON        MOCLDY    73  68  85 S3        30.15S
WASHINGTON     FAIR      72  68  88 SW6       30.16R
CLAXTON        FAIR      75  73  91 CALM      30.16F
SYLVANIA       MOCLDY    74  72  91 CALM      30.17F
STATESBORO     MOCLDY    73  68  84 CALM      30.16F
SAVANNAH       CLOUDY    72  69  90 CALM      30.15F


...SOUTHERN NORTH CAROLINA...

CITY           SKY/WX    TMP DP  RH WIND       PRES   REMARKS
CHARLOTTE      PTCLDY    77  72  84 W6        30.13F
MONROE         MOCLDY    77  70  79 SW7       30.12F
WADESBORO      MOCLDY    76  71  86 CALM      30.11S
ROCKINGHAM     MOCLDY    78  70  76 SW7       30.12R
RUTHERFORDTON  MOCLDY    72  72 100 CALM      30.16F
ASHEVILLE      MOCLDY    67  65  93 CALM      30.21F

$$




Office: CHS ASUS42 KCHS 110510 RWRCHS Regional Weather Roundup National Weather Service Charleston SC 100 AM EDT THU AUG 11 2022 NOTE: "fair" indicates few or no clouds below 12,000 feet with no significant weather and/or obstructions to visibility. Not all stations are quality controlled. Use data with caution, especially dewpoint observations. SCZ027-030-031-034>040-042>050-110600- ...Southeast South Carolina... CITY SKY/WX TMP DP RH WIND PRES REMARKS N Charleston MOCLDY 79 72 79 W8 30.15R Waterfront Prk N/A 82 73 74 W7 29.99S Mount Pleasant MOCLDY 82 79 89 W8 30.14R HX 93 Johns Island FAIR 79 72 78 W6 30.15S Pinopolis N/A 79 70 73 W7 30.08S Moncks Corner FAIR 75 45 33 CALM 30.14F Summerville CLOUDY 77 72 83 CALM 30.14S Beaufort MCAS CLOUDY 76 70 82 CALM 30.15F Beaufort Arpt N/A 77 68 73 CALM 30.15F Hilton Head Is CLOUDY 77 66 69 CALM 30.16F Walterboro CLOUDY 73 68 83 SW5 30.16S Allendale FAIR 73 73 100 CALM 30.15S ...Southern Midlands and Pee Dee... CITY SKY/WX TMP DP RH WIND PRES REMARKS Georgetown MOCLDY 79 75 89 W6 30.14S Kingstree FAIR 70 68 94 CALM 30.15R Orangeburg CLOUDY 72 72 100 SW6 30.13F Barnwell MOCLDY 72 72 100 CALM 30.15S Aiken FAIR 71 69 95 S5 30.16S Manning FAIR 72 68 88 S5 30.13F Columbia MOCLDY 73 71 93 W5 30.11S Sumter LGT RAIN 76 73 92 SW10 30.13S Florence LGT RAIN 72 69 90 N13 30.11F Myrtle Beach PTCLDY 81 76 84 W13G21 30.13S N Myrtle Beach PTCLDY 81 75 82 W10 30.12R $$ GAZ063-065-086>088-099>101-113>116-118-119-134>141-150-110600- ...Southeast Georgia... CITY SKY/WX TMP DP RH WIND PRES REMARKS Savannah Arpt CLOUDY 72 69 90 CALM 30.15F Hunter AAF CLOUDY 75 68 77 SE3 30.13F Fort Stewart MOCLDY 72 69 92 CALM 30.13F Statesboro MOCLDY 73 68 84 CALM 30.16F Sylvania MOCLDY 74 72 91 CALM 30.17F Claxton FAIR 75 73 91 CALM 30.16F Millen FAIR 72 71 96 SE5 30.17S Metter FAIR 72 N/A N/A SE3 30.16F Reidsville NOT AVBL ...CSRA, Central and far Southeast Georgia... CITY SKY/WX TMP DP RH WIND PRES REMARKS Thomson MOCLDY 73 68 85 S3 30.15S Augusta-Bush MOCLDY 70 69 97 SE3 30.14S Augusta-Daniel MOCLDY 72 68 87 CALM 30.15S Swainsboro FAIR 72 72 100 CALM 30.17S Vidalia MOCLDY 73 72 94 CALM 30.17F Eastman FAIR 72 70 94 CALM 30.16S Hazlehurst NOT AVBL Alma MOCLDY 74 72 93 CALM 30.17R Waycross MOCLDY 75 74 96 N3 30.16F Jesup MOCLDY 75 72 88 CALM 30.19R Baxley MOCLDY N/A N/A N/A CALM 30.17S Brunswick MOCLDY 76 74 93 CALM 30.15F Saint Simons MOCLDY 82 75 79 CALM 30.15S $$ SCZ027-028-034-036>038-045-046-048>050-GAZ119-141-110600- ...Lake and Supplemental Coastal Observations... STATION/POSITION TIME TEMP WIND PRES WAVE SWELL AIR SEA DIR/SP/G HT/PER HT/PER/DIR (UTC) (F) (DEG/KT/KT) (MB) (FT/S) (FT/S/D) Winyah Bay 0345 82 240/ 6 1020.0 Lake Murray 0420 77 CALM / 3 N/A Chrlstn Harbor 0430 83 86 1019.4R ACE Basin NERRS NOT AVBL Fort Pulaski 0424 78 87 340/ 4/ 5 1021.6 Sapelo Island 0400 84 300/ 2 1021.0 $$ ANZ835-935-AMZ111-154-330-350-352-354-370-450-454-472-110600- ...C-MAN and Buoy Observations... STATION/POSITION TIME TEMP WIND PRES WAVE SWELL AIR SEA DIR/SP/G HT/PER HT/PER/DIR (UTC) (F) (DEG/KT/KT) (MB) (FT/S) (FT/S/D) Buoy 41004 0440 84 85 240/ 16/ 17 1020.8R Buoy 41008 0450 84 84 210/ 10/ 12 1020.7S 3/ 9 2/110/ 9 Folly Beach CMAN 0400 83 240/ 8/ 11 1021.1F Chas Pilot Buoy NOT AVBL Chas Pilot Wave NOT AVBL Capers Nearshore NOT AVBL Capers NS Wave NOT AVBL Fripp Nearshore NOT AVBL STATION/POSITION TIME TEMP WIND PRES WAVE SWELL AIR SEA DIR/SP/G HT/PER HT/PER/DIR (UTC) (F) (DEG/KT/KT) (MB) (FT/S) (FT/S/D) 5E St. Marys GA 0430 83 83 N/A 3/10 Frying Pan Buoy 0450 84 240/ 19/ 25 1019.6S 5/ 5 2/150/ 8 Buoy 41025 0450 84 300/ 16/ 21 1018.3R Cape Lookout NC 0400 83 240/ 12/ 17 1018.8F Buoy 41002 0450 84 85 250/ 8/ 10 1020.0S Buoy 41010 0450 84 86 120/ 6/ 8 1021.7S 3/ 9 3/120/ 9 St Augustine FL 0500 81 82 170/ 10/ 11 1021.3R $$ ASUS42 KCHS 110512 RWRCHS Regional Weather Roundup National Weather Service Charleston SC 100 AM EDT THU AUG 11 2022 NOTE: "fair" indicates few or no clouds below 12,000 feet with no significant weather and/or obstructions to visibility. Not all stations are quality controlled. Use data with caution, especially dewpoint observations. SCZ027-030-031-034>040-042>050-110600- ...Southeast South Carolina... CITY SKY/WX TMP DP RH WIND PRES REMARKS N Charleston MOCLDY 79 72 79 W8 30.15R Waterfront Prk NOT AVBL Mount Pleasant MOCLDY 82 79 89 W8 30.14R HX 93 Johns Island FAIR 79 72 78 W6 30.15S Pinopolis NOT AVBL Moncks Corner FAIR 75 45 33 CALM 30.14F Summerville CLOUDY 77 72 83 CALM 30.14S Beaufort MCAS CLOUDY 76 70 82 CALM 30.15F Beaufort Arpt N/A 77 68 73 CALM 30.15F Hilton Head Is CLOUDY 77 66 69 CALM 30.16F Walterboro CLOUDY 73 68 83 SW5 30.16S Allendale FAIR 73 73 100 CALM 30.15S ...Southern Midlands and Pee Dee... CITY SKY/WX TMP DP RH WIND PRES REMARKS Georgetown MOCLDY 79 75 89 W6 30.14S Kingstree FAIR 70 68 94 CALM 30.15R Orangeburg CLOUDY 72 72 100 SW6 30.13F Barnwell MOCLDY 72 72 100 CALM 30.15S Aiken FAIR 71 69 95 S5 30.16S Manning FAIR 72 68 88 S5 30.13F Columbia MOCLDY 73 71 93 W5 30.11S Sumter LGT RAIN 76 73 92 SW10 30.13S Florence LGT RAIN 72 69 90 N13 30.11F Myrtle Beach PTCLDY 81 76 84 W13G21 30.13S N Myrtle Beach PTCLDY 81 75 82 W10 30.12R $$ GAZ063-065-086>088-099>101-113>116-118-119-134>141-150-110600- ...Southeast Georgia... CITY SKY/WX TMP DP RH WIND PRES REMARKS Savannah Arpt CLOUDY 72 69 90 CALM 30.15F Hunter AAF CLOUDY 75 68 77 SE3 30.13F Fort Stewart MOCLDY 72 69 92 CALM 30.13F Statesboro MOCLDY 73 68 84 CALM 30.16F Sylvania MOCLDY 74 72 91 CALM 30.17F Claxton FAIR 75 73 91 CALM 30.16F Millen FAIR 72 71 96 SE5 30.17S Metter FAIR 72 N/A N/A SE3 30.16F Reidsville NOT AVBL ...CSRA, Central and far Southeast Georgia... CITY SKY/WX TMP DP RH WIND PRES REMARKS Thomson MOCLDY 73 68 85 S3 30.15S Augusta-Bush MOCLDY 70 69 97 SE3 30.14S Augusta-Daniel MOCLDY 72 68 87 CALM 30.15S Swainsboro FAIR 72 72 100 CALM 30.17S Vidalia MOCLDY 73 72 94 CALM 30.17F Eastman FAIR 72 70 94 CALM 30.16S Hazlehurst NOT AVBL Alma MOCLDY 74 72 93 CALM 30.17R Waycross MOCLDY 75 74 96 N3 30.16F Jesup MOCLDY 75 72 88 CALM 30.19R Baxley MOCLDY N/A N/A N/A CALM 30.17S Brunswick MOCLDY 76 74 93 CALM 30.15F Saint Simons MOCLDY 82 75 79 CALM 30.15S $$ SCZ027-028-034-036>038-045-046-048>050-GAZ119-141-110600- ...Lake and Supplemental Coastal Observations... STATION/POSITION TIME TEMP WIND PRES WAVE SWELL AIR SEA DIR/SP/G HT/PER HT/PER/DIR (UTC) (F) (DEG/KT/KT) (MB) (FT/S) (FT/S/D) Winyah Bay 0345 82 240/ 6 1020.0 Lake Murray 0420 77 CALM / 3 N/A Chrlstn Harbor 0430 83 86 1019.4R ACE Basin NERRS NOT AVBL Fort Pulaski 0424 78 87 340/ 4/ 5 1021.6 Sapelo Island 0400 84 300/ 2 1021.0 $$ ANZ835-935-AMZ111-154-330-350-352-354-370-450-454-472-110600- ...C-MAN and Buoy Observations... STATION/POSITION TIME TEMP WIND PRES WAVE SWELL AIR SEA DIR/SP/G HT/PER HT/PER/DIR (UTC) (F) (DEG/KT/KT) (MB) (FT/S) (FT/S/D) Buoy 41004 0440 84 85 240/ 16/ 17 1020.8R Buoy 41008 0450 84 84 210/ 10/ 12 1020.7S 3/ 9 2/110/ 9 Folly Beach CMAN 0400 83 240/ 8/ 11 1021.1F Chas Pilot Buoy NOT AVBL Chas Pilot Wave NOT AVBL Capers Nearshore NOT AVBL Capers NS Wave NOT AVBL Fripp Nearshore NOT AVBL STATION/POSITION TIME TEMP WIND PRES WAVE SWELL AIR SEA DIR/SP/G HT/PER HT/PER/DIR (UTC) (F) (DEG/KT/KT) (MB) (FT/S) (FT/S/D) 5E St. Marys GA 0430 83 83 N/A 3/10 Frying Pan Buoy 0450 84 240/ 19/ 25 1019.6S 5/ 5 2/150/ 8 Buoy 41025 0450 84 300/ 16/ 21 1018.3R Cape Lookout NC 0400 83 240/ 12/ 17 1018.8F Buoy 41002 0450 84 85 250/ 8/ 10 1020.0S Buoy 41010 0450 84 86 120/ 6/ 8 1021.7S 3/ 9 3/120/ 9 St Augustine FL 0500 81 82 170/ 10/ 11 1021.3R $$ ASUS42 KCHS 110525 RWRCHS Regional Weather Roundup National Weather Service Charleston SC 100 AM EDT THU AUG 11 2022 NOTE: "fair" indicates few or no clouds below 12,000 feet with no significant weather and/or obstructions to visibility. Not all stations are quality controlled. Use data with caution, especially dewpoint observations. SCZ027-030-031-034>040-042>050-110600- ...Southeast South Carolina... CITY SKY/WX TMP DP RH WIND PRES REMARKS N Charleston MOCLDY 79 72 79 W8 30.15R Waterfront Prk N/A 82 73 74 W7 29.99S Mount Pleasant MOCLDY 81 79 94 CALM 30.13F Johns Island FAIR 79 72 78 W3 30.15S Pinopolis N/A 79 70 73 W7 30.08S Moncks Corner FAIR 73 46 38 CALM 30.14F Summerville CLOUDY 77 70 78 CALM 30.14S Beaufort MCAS CLOUDY 76 70 82 CALM 30.15F Beaufort Arpt N/A 77 68 73 CALM 30.14F Hilton Head Is CLOUDY 77 68 73 CALM 30.16S Walterboro CLOUDY 73 70 88 SW3 30.16F Allendale FAIR 73 73 100 CALM 30.15S ...Southern Midlands and Pee Dee... CITY SKY/WX TMP DP RH WIND PRES REMARKS Georgetown CLOUDY 79 73 83 NW7 30.14F Kingstree FAIR 70 68 94 CALM 30.13F Orangeburg CLOUDY 72 72 100 SW6 30.13F Barnwell FAIR 72 72 100 SW7 30.15S Aiken FAIR 71 69 95 W6 30.16S Manning FAIR 72 68 88 SE3 30.12F Columbia MOCLDY 73 71 93 W5 30.11S Sumter MOCLDY 76 73 92 CALM 30.12F Florence CLOUDY 73 70 90 NW12 30.08F Myrtle Beach PTCLDY 81 76 84 W13G21 30.13S N Myrtle Beach PTCLDY 81 75 82 W10 30.12R $$ GAZ063-065-086>088-099>101-113>116-118-119-134>141-150-110600- ...Southeast Georgia... CITY SKY/WX TMP DP RH WIND PRES REMARKS Savannah Arpt CLOUDY 72 69 90 CALM 30.15F Hunter AAF CLOUDY 75 68 77 SE3 30.13F Fort Stewart MOCLDY 72 69 92 CALM 30.13F Statesboro MOCLDY 73 69 87 CALM 30.16F Sylvania MOCLDY 74 71 91 CALM 30.17F Claxton FAIR 75 73 93 CALM 30.16F Millen FAIR 72 71 95 CALM 30.16F Metter FAIR 72 N/A N/A SE5 30.15F Reidsville NOT AVBL ...CSRA, Central and far Southeast Georgia... CITY SKY/WX TMP DP RH WIND PRES REMARKS Thomson MOCLDY 73 68 85 S5 30.15S Augusta-Bush MOCLDY 70 69 97 SE3 30.14S Augusta-Daniel MOCLDY 72 68 87 CALM 30.15S Swainsboro FAIR 72 72 100 S3 30.16F Vidalia MOCLDY 73 72 94 CALM 30.16F Eastman FAIR 72 70 94 CALM 30.16S Hazlehurst NOT AVBL Alma MOCLDY 74 72 93 CALM 30.17R Waycross MOCLDY 75 73 96 CALM 30.16F Jesup MOCLDY 75 72 88 CALM 30.18F Baxley MOCLDY N/A N/A N/A CALM 30.16F Brunswick MOCLDY 76 74 93 E5 30.15F Saint Simons MOCLDY 82 75 79 CALM 30.15S $$ SCZ027-028-034-036>038-045-046-048>050-GAZ119-141-110600- ...Lake and Supplemental Coastal Observations... STATION/POSITION TIME TEMP WIND PRES WAVE SWELL AIR SEA DIR/SP/G HT/PER HT/PER/DIR (UTC) (F) (DEG/KT/KT) (MB) (FT/S) (FT/S/D) Winyah Bay 0445 81 270/ 5 1021.0R Lake Murray 0520 78 210/ 5/ 6 N/A Chrlstn Harbor 0442 82 86 250/ 7/ 10 1019.4R ACE Basin NERRS NOT AVBL Fort Pulaski 0442 77 87 340/ 4/ 4 1021.5F Sapelo Island 0500 80 10/ 5 1021.0 $$ ANZ835-935-AMZ111-154-330-350-352-354-370-450-454-472-110600- ...C-MAN and Buoy Observations... STATION/POSITION TIME TEMP WIND PRES WAVE SWELL AIR SEA DIR/SP/G HT/PER HT/PER/DIR (UTC) (F) (DEG/KT/KT) (MB) (FT/S) (FT/S/D) Buoy 41004 0510 84 85 240/ 16/ 19 1020.7 Buoy 41008 0450 84 84 210/ 10/ 12 1020.7S 3/ 9 2/110/ 9 Folly Beach CMAN 0500 80 270/ 5/ 6 1021.1S Chas Pilot Buoy NOT AVBL Chas Pilot Wave NOT AVBL Capers Nearshore NOT AVBL Capers NS Wave NOT AVBL Fripp Nearshore NOT AVBL STATION/POSITION TIME TEMP WIND PRES WAVE SWELL AIR SEA DIR/SP/G HT/PER HT/PER/DIR (UTC) (F) (DEG/KT/KT) (MB) (FT/S) (FT/S/D) 5E St. Marys GA 0500 83 83 N/A 3/ 4 Frying Pan Buoy 0510 84 84 250/ 17/ 23 1019.6 Buoy 41025 0500 84 360/ 16/ 23 1018.3 Cape Lookout NC 0500 83 240/ 15/ 19 1018.9R Buoy 41002 0500 84 250/ 8/ 10 1019.9 Buoy 41010 0510 84 86 130/ 6/ 8 1021.7 St Augustine FL 0500 81 82 170/ 10/ 11 1021.3R $$